[[{"header":{"parameterUnit":"m.s-1","parameterCategory":1,"la1":30.2991,"la2":30.254,"lo1":-89.0895,"lo2":-89.0444,"dy":0.0017,"dx":0.0017,"nx":28,"ny":28,"refTime":"2023-07-23T09:00:00:Z","depth":0,"parameterNumber":2,"parameterNumberName":"U-component_of_WINDS"},"data":[0,0,0,0,0,0,0,0,0,0,0,0,0,0,0,0,0,0,0,0,0,0,0,0,0,0,0,0,0,0,0,0,0,0,0,0,0,0,0,0,0,0,0,0,0,0,0,0,0,0,0,0,0,0,0,0,0,0,-1.9023,-1.9022,0,-1.8998,-1.8997,-1.8997,-1.8996,-1.8996,-1.8996,-1.8997,-1.8966,-1.8965,-1.8964,0,0,0,0,0,0,0,0,0,0,0,0,0,-1.9065,-1.9064,-1.9023,-1.9022,-1.9022,-1.8998,-1.8997,-1.8997,-1.8996,-1.8996,-1.8996,-1.8997,-1.8967,-1.8965,-1.8964,0,0,0,0,0,0,0,0,0,0,0,0,0,-1.9044,-1.9064,-1.9023,-1.9019,-1.9018,-1.8998,-1.8997,-1.8997,-1.8995,-1.8996,-1.8996,-1.8997,-1.8967,-1.8966,-1.8964,-1.8945,0,0,-1.8959,-1.8958,0,0,0,0,0,0,0,0,-1.9045,-1.9042,-1.9019,-1.9019,-1.9018,-1.9,-1.9001,-1.8979,-1.8995,-1.9004,-1.8997,-1.8997,-1.8977,-1.8975,-1.8969,-1.8943,-1.8942,-1.8959,-1.8958,-1.8957,-1.8957,0,0,0,0,0,0,0,-1.9046,-1.9043,-1.9013,-1.9019,-1.9018,-1.9016,-1.9014,-1.8997,-1.8988,-1.9003,-1.9003,-1.9,-1.8977,-1.897,-1.8968,-1.8942,-1.8959,-1.8957,-1.8956,-1.8956,-1.8898,-1.8897,0,0,0,0,0,0,-1.9049,-1.9044,-1.9013,-1.9012,-1.9033,-1.9015,-1.9013,-1.9005,-1.8988,-1.8986,-1.9,-1.9,-1.8973,-1.897,-1.8967,-1.8942,-1.8957,-1.8956,-1.8955,-1.8898,-1.8898,-1.8897,0,0,0,0,0,0,-1.905,-1.9047,-1.9014,-1.9028,-1.9024,-1.9014,-1.9006,-1.9005,-1.8998,-1.8986,-1.8984,-1.8995,-1.8973,-1.8969,-1.895,-1.8941,-1.8955,-1.8953,-1.8899,-1.8898,-1.8897,-1.8893,0,0,0,0,0,0,-1.9051,-1.9047,-1.9041,-1.9028,-1.9023,-1.9,-1.9006,-1.9004,-1.8996,-1.8996,-1.8981,-1.8979,-1.8973,-1.8953,-1.8949,-1.8939,-1.8952,-1.89,-1.8899,-1.8898,-1.8894,-1.8892,-1.8891,0,0,0,0,0,-1.9053,-1.904,-1.904,-1.9037,-1.9015,-1.8999,-1.8996,-1.8991,-1.8996,-1.8988,-1.898,-1.8979,-1.8943,-1.8951,-1.8946,-1.8936,-1.89,-1.8899,-1.8898,-1.8895,-1.8893,-1.8891,0,0,0,0,0,0,-1.905,-1.9038,-1.9039,-1.9021,-1.9011,-1.8999,-1.899,-1.8989,-1.8977,-1.8977,-1.897,-1.8967,-1.8948,-1.894,-1.8949,-1.8916,-1.8922,-1.892,-1.8921,-1.8919,-1.8918,-1.8919,-1.8951,0,0,0,0,0,-1.9048,-1.9037,-1.9027,-1.9012,-1.9007,-1.9,-1.8992,-1.8989,-1.8978,-1.8973,-1.8964,-1.8952,-1.8937,-1.8928,-1.8915,-1.8894,-1.8889,-1.8884,-1.8882,-1.8881,-1.8879,-1.8865,-1.8862,-1.8893,-1.8893,-1.8893,0,0,-1.9042,-1.9034,-1.9028,-1.9012,-1.9004,-1.8991,-1.8996,-1.8983,-1.8972,-1.8971,-1.8952,-1.8945,-1.8931,-1.8911,-1.8901,-1.8904,-1.887,-1.888,-1.8879,-1.8877,-1.8864,-1.8861,-1.8858,-1.8892,-1.8892,-1.8892,0,0,-1.9026,-1.9019,-1.9006,-1.8998,-1.8987,-1.8981,-1.8978,-1.8966,-1.8961,-1.8943,-1.8941,-1.8928,-1.8904,-1.8894,-1.8886,-1.8865,-1.8863,-1.886,-1.8851,-1.8838,-1.8836,-1.8833,-1.8824,-1.8821,-1.8858,-1.8858,-1.8858,0,-1.902,-1.9002,-1.8999,-1.8986,-1.8978,-1.8977,-1.8963,-1.8955,-1.8939,-1.8932,-1.8936,-1.8905,-1.8896,-1.8872,-1.8867,-1.8861,-1.8855,-1.8861,-1.8837,-1.8834,-1.8832,-1.8823,-1.882,-1.8858,-1.8858,-1.8858,-1.8858,0,-1.8995,-1.8982,-1.8973,-1.8958,-1.895,-1.8936,-1.8929,-1.892,-1.8918,-1.8912,-1.8892,-1.8881,-1.8864,-1.8859,-1.8856,-1.8834,-1.8836,-1.8838,-1.8844,-1.8829,-1.882,-1.8817,-1.8857,-1.8858,-1.8858,-1.8858,0,0,-1.8975,-1.8959,-1.8955,-1.8948,-1.8935,-1.8925,-1.891,-1.8895,-1.8887,-1.8876,-1.8862,-1.8842,-1.8844,-1.8834,-1.883,-1.8819,-1.8801,-1.8822,-1.8822,-1.8817,-1.8774,-1.8771,-1.8767,-1.88,-1.88,-1.8799,-1.8774,0,-1.8955,-1.8931,-1.8927,-1.8905,-1.8892,-1.8892,-1.8879,-1.8868,-1.8862,-1.8849,-1.8842,-1.8827,-1.8832,-1.8826,-1.8815,-1.8805,-1.8792,-1.8807,-1.8785,-1.8784,-1.8787,-1.8763,-1.876,-1.8737,-1.8771,-1.877,-1.877,0,-1.8929,-1.8918,-1.8895,-1.8883,-1.8877,-1.8866,-1.8851,-1.884,-1.8827,-1.8823,-1.8813,-1.881,-1.8793,-1.8801,-1.8776,-1.8787,-1.8777,-1.8771,-1.877,-1.8766,-1.8775,-1.8756,-1.873,-1.8725,-1.8765,-1.8765,-1.8766,0,-1.8915,-1.8894,-1.8877,-1.8872,-1.8857,-1.8849,-1.8842,-1.8831,-1.8822,-1.8808,-1.8802,-1.8787,-1.8778,-1.8765,-1.8757,-1.8764,-1.8732,-1.874,-1.8727,-1.8727,-1.8718,-1.8719,-1.8688,-1.8716,-1.8716,-1.8716,-1.8716,0,-1.8892,-1.8878,-1.8871,-1.886,-1.8843,-1.8839,-1.8821,-1.8815,-1.8804,-1.8791,-1.8789,-1.8776,-1.8768,-1.8754,-1.8748,-1.8727,-1.8723,-1.8718,-1.8716,-1.8717,-1.8717,-1.8709,-1.871,-1.8715,-1.8715,-1.8715,-1.8716,0,-1.8873,-1.8868,-1.8849,-1.8837,-1.8834,-1.8822,-1.8811,-1.8799,-1.8794,-1.8777,-1.8772,-1.8762,-1.8745,-1.8737,-1.8715,-1.8711,-1.8686,-1.8687,-1.8691,-1.869,-1.8676,-1.8677,-1.8638,-1.8631,-1.8665,-1.8665,-1.8665,0,-1.8858,-1.8847,-1.8834,-1.8826,-1.8819,-1.8806,-1.8797,-1.8792,-1.8782,-1.8767,-1.8757,-1.874,-1.8726,-1.8698,-1.8687,-1.867,-1.8669,-1.8656,-1.8666,-1.8667,-1.8666,-1.8666,-1.8664,-1.8654,-1.8653,-1.8653,-1.8653,0,-1.8832,-1.883,-1.8818,-1.8804,-1.8794,-1.8783,-1.8772,-1.8764,-1.8757,-1.8746,-1.8729,-1.8719,-1.8697,-1.8679,-1.8661,-1.8652,-1.865,-1.865,-1.8646,-1.8646,-1.8648,-1.8644,-1.8684,-1.8651,-1.8651,-1.8651,-1.8651,-1.8651,-1.8813,-1.8802,-1.8791,-1.8777,-1.8769,-1.8759,-1.8747,-1.874,-1.8726,-1.8709,-1.8707,-1.8688,-1.8674,-1.865,-1.8641,-1.8625,-1.8627,-1.8622,-1.862,-1.8618,-1.8616,-1.8652,-1.8622,-1.8622,-1.8622,-1.8622,-1.8622,0,-1.8785,-1.8778,-1.8765,-1.875,-1.8739,-1.8741,-1.8728,-1.8718,-1.8702,-1.869,-1.8677,-1.8656,-1.8639,-1.8627,-1.8609,-1.8598,-1.8597,-1.8593,-1.8593,-1.859,-1.8616,-1.862,-1.8595,-1.8595,-1.8595,-1.8595,-1.8595,-1.8595,-1.8769,-1.875,-1.8747,-1.8724,-1.8717,-1.8699,-1.8692,-1.8681,-1.8672,-1.865,-1.8636,-1.8629,-1.8616,-1.8597,-1.8581,-1.8578,-1.857,-1.8566,-1.8563,-1.8586,-1.8589,-1.8591,-1.8596,-1.8565,-1.8565,-1.8538,-1.8538,-1.8538]},{"header":{"parameterUnit":"m.s-1","parameterCategory":1,"la1":30.2991,"la2":30.254,"lo1":-89.0895,"lo2":-89.0444,"dy":0.0017,"dx":0.0017,"nx":28,"ny":28,"refTime":"2023-07-23T09:00:00:Z","depth":0,"parameterNumber":3,"parameterNumberName":"V-component_of_WINDS"},"data":[0,0,0,0,0,0,0,0,0,0,0,0,0,0,0,0,0,0,0,0,0,0,0,0,0,0,0,0,0,0,0,0,0,0,0,0,0,0,0,0,0,0,0,0,0,0,0,0,0,0,0,0,0,0,0,0,0,0,0.4721,0.4721,0,0.4704,0.4704,0.4704,0.473,0.4731,0.4732,0.4733,0.4713,0.4712,0.4711,0,0,0,0,0,0,0,0,0,0,0,0,0,0.4775,0.4774,0.4721,0.4721,0.4721,0.4704,0.4704,0.4704,0.473,0.4731,0.4732,0.4733,0.4714,0.4712,0.471,0,0,0,0,0,0,0,0,0,0,0,0,0,0.4754,0.4774,0.4721,0.4732,0.4733,0.4704,0.4704,0.4703,0.473,0.4731,0.4732,0.4734,0.4714,0.4712,0.471,0.467,0,0,0.4704,0.4703,0,0,0,0,0,0,0,0,0.4755,0.4752,0.4731,0.4731,0.4732,0.4721,0.4716,0.4692,0.4729,0.4731,0.4733,0.4734,0.4714,0.4712,0.4706,0.4669,0.4668,0.4704,0.4702,0.4702,0.4701,0,0,0,0,0,0,0,0.4757,0.4753,0.4714,0.473,0.4731,0.4737,0.4736,0.4711,0.4715,0.4731,0.4733,0.473,0.4715,0.4708,0.4706,0.4668,0.4704,0.4702,0.4701,0.47,0.4596,0.4594,0,0,0,0,0,0,0.4757,0.4754,0.4715,0.4714,0.4747,0.4735,0.4733,0.4723,0.4715,0.4716,0.4729,0.4732,0.4711,0.4708,0.4705,0.4657,0.4702,0.47,0.4698,0.4597,0.4596,0.4594,0,0,0,0,0,0,0.4758,0.4753,0.4716,0.4734,0.473,0.4733,0.472,0.4722,0.4715,0.4714,0.4715,0.4721,0.4712,0.4708,0.4678,0.4656,0.4699,0.4697,0.4599,0.4597,0.4595,0.4559,0,0,0,0,0,0,0.476,0.4754,0.4739,0.4734,0.4729,0.4689,0.4719,0.472,0.4711,0.4714,0.4707,0.4707,0.4713,0.4681,0.4676,0.4654,0.4695,0.4601,0.4598,0.4595,0.4563,0.4556,0.4551,0,0,0,0,0,0.4762,0.4729,0.4738,0.4733,0.471,0.4688,0.4685,0.4693,0.4709,0.4694,0.4694,0.4707,0.466,0.4678,0.4673,0.465,0.4602,0.4599,0.4596,0.4565,0.4557,0.4551,0,0,0,0,0,0,0.473,0.4729,0.4738,0.4703,0.4696,0.4692,0.4673,0.4684,0.4671,0.4674,0.4684,0.4682,0.465,0.4647,0.4667,0.461,0.4634,0.4629,0.4613,0.4605,0.46,0.46,0.4693,0,0,0,0,0,0.472,0.4702,0.4702,0.4671,0.4667,0.4671,0.4661,0.4668,0.466,0.4656,0.4654,0.4645,0.4628,0.4617,0.4602,0.4563,0.4561,0.4545,0.4539,0.4534,0.4529,0.4508,0.45,0.4583,0.4583,0.4583,0,0,0.4697,0.4694,0.4682,0.4664,0.4659,0.464,0.4667,0.4646,0.4632,0.4653,0.4624,0.4623,0.4614,0.4579,0.4564,0.4575,0.4506,0.4529,0.4526,0.4524,0.4503,0.4496,0.4489,0.458,0.4581,0.4581,0,0,0.4645,0.4642,0.4615,0.461,0.4602,0.4605,0.4599,0.4594,0.4593,0.4565,0.458,0.4564,0.4535,0.4527,0.452,0.4466,0.4478,0.4461,0.443,0.4409,0.4402,0.4396,0.4376,0.4369,0.4457,0.4457,0.4457,0,0.4618,0.459,0.46,0.4578,0.4569,0.4589,0.4562,0.4556,0.4543,0.4536,0.455,0.4514,0.4509,0.4473,0.446,0.4454,0.4446,0.4461,0.4402,0.4397,0.4391,0.4372,0.4365,0.4454,0.4455,0.4455,0.4455,0,0.4556,0.4537,0.4516,0.4504,0.4493,0.4469,0.4475,0.4463,0.4471,0.4472,0.4443,0.4438,0.4422,0.4414,0.4421,0.4378,0.4386,0.4401,0.4425,0.4381,0.4363,0.4356,0.4451,0.4452,0.4453,0.4453,0,0,0.4483,0.4477,0.4469,0.4463,0.4456,0.4441,0.4418,0.4402,0.4391,0.4382,0.4362,0.4337,0.4351,0.4343,0.4349,0.4331,0.4288,0.4348,0.4348,0.4336,0.4239,0.4226,0.4218,0.4296,0.4295,0.4294,0.4239,0,0.443,0.439,0.4398,0.4358,0.434,0.4358,0.4337,0.433,0.4331,0.4316,0.4317,0.4298,0.4319,0.4314,0.4297,0.4296,0.4268,0.4301,0.4276,0.4275,0.4276,0.4209,0.4195,0.4144,0.4232,0.4231,0.423,0,0.4364,0.4352,0.431,0.4306,0.4298,0.4279,0.4266,0.4251,0.4243,0.4245,0.4236,0.4247,0.4222,0.4248,0.4215,0.4237,0.4227,0.4226,0.4224,0.4221,0.4249,0.4202,0.4128,0.412,0.422,0.4221,0.4221,0,0.4313,0.4287,0.4258,0.4253,0.4248,0.4234,0.4231,0.4225,0.4215,0.4203,0.4197,0.4182,0.4174,0.4162,0.4168,0.4187,0.4133,0.416,0.4133,0.4133,0.412,0.412,0.4041,0.4116,0.4116,0.4116,0.4117,0,0.4252,0.4225,0.4235,0.4217,0.4188,0.4198,0.4168,0.4168,0.4162,0.4144,0.416,0.4142,0.4152,0.4135,0.414,0.4111,0.4107,0.4108,0.4109,0.4105,0.4105,0.4098,0.4101,0.4114,0.4115,0.4115,0.4116,0,0.419,0.4196,0.4165,0.4163,0.4162,0.414,0.4137,0.412,0.4123,0.41,0.4095,0.4099,0.408,0.4085,0.4065,0.4068,0.4031,0.4037,0.4033,0.4034,0.4007,0.4009,0.392,0.3908,0.3992,0.3991,0.399,0,0.415,0.413,0.4125,0.4115,0.4111,0.4093,0.4083,0.4093,0.4082,0.4072,0.4056,0.4039,0.4025,0.3994,0.3995,0.3979,0.3984,0.3955,0.3982,0.3979,0.3982,0.3983,0.398,0.3948,0.3947,0.3947,0.3946,0,0.4078,0.4082,0.4068,0.4054,0.4042,0.4031,0.4022,0.4013,0.4022,0.4009,0.399,0.3979,0.3959,0.3941,0.3927,0.3923,0.3935,0.3938,0.393,0.3926,0.3923,0.3923,0.4016,0.3939,0.394,0.394,0.3941,0.3941,0.4025,0.4008,0.4002,0.3985,0.3979,0.3971,0.3954,0.3955,0.394,0.3924,0.3931,0.3909,0.3902,0.3884,0.3879,0.3862,0.3873,0.3863,0.386,0.3857,0.3853,0.3928,0.3859,0.386,0.386,0.386,0.386,0,0.3953,0.395,0.3935,0.3922,0.3908,0.3923,0.3913,0.3901,0.3881,0.3874,0.3861,0.3839,0.3822,0.3822,0.3806,0.3792,0.3797,0.3787,0.3787,0.3786,0.3844,0.3851,0.3783,0.3783,0.3783,0.3783,0.3783,0.3783,0.3914,0.3885,0.3888,0.3857,0.3854,0.3833,0.3826,0.3818,0.3812,0.3787,0.3773,0.3774,0.3769,0.3753,0.3738,0.3738,0.3731,0.3718,0.3721,0.3775,0.3782,0.3789,0.3796,0.3717,0.3717,0.3664,0.3663,0.3663]}]]